Theta_e
302 301 301 301 301 301 302 302 302 302 302 302 302 303 303 303 304 304 305 304 305 306 306 306 309 311 311 310 310 310 314 315 313 314 312 309 310 306 305 306 304 304 303 302 302
301 301 301 301 301 301 301 301 302 302 302 302 302 303 303 304 304 304 304 304 305 306 307 307 307 308 309 309 310 313 314 312 311 312 311 307 306 306 306 306 305 304 301 301 301
301 301 301 301 301 301 301 301 301 302 301 302 302 303 303 304 304 303 303 304 304 305 306 306 307 307 308 309 308 311 313 311 309 308 307 305 305 304 306 306 302 303 301 300 300
301 301 301 301 301 301 301 301 301 301 301 302 302 302 304 306 309 303 303 303 304 305 305 306 306 308 309 310 307 310 308 309 306 305 306 305 304 304 303 302 301 300 299 299 298
301 301 301 301 301 300 301 302 302 302 301 301 302 303 303 303 302 302 302 303 303 303 305 306 306 307 309 307 308 309 305 303 303 304 304 304 304 303 301 300 299 299 297 296 295
301 301 301 301 301 300 301 301 301 301 301 302 302 303 303 306 302 301 302 302 302 303 304 305 305 305 305 304 306 303 303 303 304 303 303 304 303 304 301 299 299 298 296 295 295
300 300 300 301 301 301 301 301 301 301 301 301 302 303 304 303 302 301 301 302 302 303 304 305 304 304 303 303 301 302 304 304 303 303 303 304 303 302 298 299 299 297 296 294 294
300 300 300 300 301 301 301 301 301 301 301 301 302 302 302 301 301 301 301 301 302 303 303 303 303 303 303 302 302 304 305 307 303 303 302 303 303 300 298 300 299 297 296 294 293
300 300 300 301 301 301 301 301 301 301 301 301 301 303 301 300 301 301 301 301 301 302 302 302 303 302 302 306 306 305 306 306 303 302 302 303 303 300 299 300 298 297 296 295 294
300 300 300 300 300 300 300 300 300 300 301 301 302 304 301 301 301 301 301 301 301 301 302 303 303 305 304 304 306 305 304 303 303 302 303 303 302 300 299 299 298 297 296 295 294
300 300 300 300 300 300 301 300 302 303 302 302 302 302 301 301 301 301 302 302 303 303 304 303 306 306 304 303 303 304 304 303 301 301 302 302 302 301 299 299 298 297 296 295 294
300 300 300 300 300 300 300 301 303 305 303 302 302 301 301 301 301 302 302 303 303 304 302 306 305 302 301 302 302 303 303 303 302 301 302 302 302 300 298 296 296 297 296 295 294
300 299 299 299 299 299 300 301 303 304 305 303 302 302 302 302 301 302 302 302 302 303 302 305 304 302 302 302 303 302 303 303 303 301 301 302 302 300 298 296 295 294 294 293 293
300 299 299 298 298 299 300 301 302 302 312 304 302 302 302 302 302 302 301 301 302 303 304 304 301 302 302 302 302 303 302 302 302 302 304 301 307 302 299 297 296 295 294 293 292
300 300 299 298 299 299 301 301 301 305 328 304 301 302 301 301 301 301 301 301 302 301 302 302 302 302 303 303 302 304 302 302 302 302 302 302 303 302 299 298 297 295 293 292 291
300 299 298 298 299 300 301 300 301 319 323 304 301 303 302 302 301 301 302 301 301 303 302 302 300 302 302 301 301 300 301 300 300 301 306 302 301 303 300 301 297 294 292 291 290
300 299 298 298 299 300 299 300 315 323 304 306 303 302 302 302 302 301 302 302 303 304 304 302 302 300 301 302 300 299 300 310 308 306 309 298 301 303 301 298 297 294 292 290 290
302 299 298 297 299 299 299 307 318 311 308 300 302 301 303 302 302 301 301 302 301 301 303 304 304 301 300 301 303 301 300 311 308 307 303 297 303 301 298 295 293 292 291 289 289
304 299 298 296 298 298 299 310 314 310 303 302 301 304 303 302 302 302 301 302 302 301 305 302 302 298 298 299 300 300 301 297 298 289 301 301 299 297 295 294 292 291 290 289 289
305 301 299 296 298 297 304 309 306 304 301 301 312 305 306 303 302 302 302 302 301 300 298 300 303 298 298 298 298 300 297 301 301 304 304 300 297 301 296 295 293 292 290 289 288
305 301 298 296 297 297 302 305 299 300 302 304 307 302 304 303 303 303 305 300 300 299 298 299 303 299 298 299 300 299 301 298 299 299 305 304 302 299 299 297 295 292 290 289 288
304 301 297 296 298 294 300 297 297 299 300 300 302 301 304 302 304 303 304 300 299 298 300 298 301 302 300 295 294 297 300 299 308 300 296 298 301 295 296 297 295 292 289 288 288
303 295 295 297 300 295 293 296 298 299 300 300 301 301 299 303 306 302 301 294 297 299 300 298 301 303 300 295 294 296 298 295 292 297 298 304 303 292 292 293 292 291 289 288 288
305 297 295 295 296 298 297 298 298 297 299 299 300 299 299 299 297 299 298 295 296 297 297 297 297 306 311 302 298 296 297 295 299 301 301 300 304 294 293 292 290 289 289 288 287
307 299 296 296 297 295 298 297 299 299 297 298 298 302 302 299 298 298 295 295 296 298 295 298 301 292 291 292 294 296 297 296 296 299 302 303 298 301 295 292 291 289 288 287 287
302 297 295 297 297 296 298 298 300 298 299 298 301 300 301 302 305 299 297 299 301 294 296 293 301 293 293 290 291 294 295 296 296 299 294 294 294 296 295 292 289 289 288 287 287
310 308 304 299 298 297 298 299 299 299 297 299 300 300 300 302 297 298 297 298 299 299 297 297 296 297 302 288 290 295 292 295 297 297 298 297 298 291 289 289 290 289 289 288 287
Wind_Speed
4 4 3 2 2 2 3 4 5 6 6 7 7 7 8 8 7 4 10 10 11 8 7 7 8 9 10 11 10 6 4 8 6 8 7 4 4 5 7 15 19 9 10 7 13
5 4 3 3 4 4 4 5 6 6 6 7 8 9 10 12 13 12 10 10 8 7 7 7 7 5 7 6 6 6 4 4 4 8 10 8 7 6 7 12 13 13 10 11 15
6 5 4 4 5 6 5 5 5 7 7 7 6 5 3 4 4 8 8 7 6 6 6 7 9 9 8 7 8 6 5 12 8 10 9 11 14 4 10 9 8 8 9 13 16
7 6 5 5 6 6 6 6 6 6 7 7 6 4 3 4 2 4 6 6 6 5 4 5 6 6 6 6 5 9 8 6 5 4 7 9 10 15 15 7 9 10 11 14 19
8 7 7 7 7 7 6 6 7 7 7 7 6 5 4 6 6 5 6 6 6 5 4 10 13 8 6 8 17 15 9 8 9 11 11 14 14 15 14 9 9 10 13 17 19
10 9 8 7 7 7 7 6 7 8 7 7 5 5 5 4 5 6 7 7 6 7 7 7 11 17 13 6 5 8 15 13 9 10 6 14 10 2 7 1 7 11 15 16 19
12 11 10 9 8 8 7 7 8 7 8 8 7 8 8 6 6 6 7 7 9 10 14 15 12 6 9 13 10 11 12 11 10 5 6 13 9 9 8 9 14 13 13 16 19
13 11 11 10 9 8 8 8 8 7 7 7 6 5 7 9 7 5 7 9 10 12 15 17 16 18 7 17 5 4 3 4 4 6 2 5 4 10 7 12 14 13 13 14 19
15 13 12 11 11 9 9 8 8 7 6 6 5 5 7 7 6 6 6 8 9 10 12 11 8 10 7 7 4 2 4 5 5 7 2 3 9 6 7 10 13 12 13 13 14
17 15 14 13 12 11 10 10 9 7 7 7 8 5 7 5 6 7 7 8 5 10 8 4 5 4 2 3 5 7 5 3 4 5 11 13 12 8 7 9 11 11 11 11 13
19 17 16 14 14 13 14 13 8 4 5 5 4 9 12 9 7 5 7 8 7 3 2 5 2 4 4 1 2 8 9 7 4 3 4 8 10 7 6 8 8 8 8 10 12
21 20 18 16 16 16 16 9 7 7 11 8 9 9 10 9 5 4 5 2 3 3 1 2 4 4 6 4 7 8 10 4 4 5 3 9 9 7 7 5 3 5 7 7 8
24 22 19 18 18 17 17 11 10 10 6 3 5 5 5 5 4 3 4 5 5 3 3 3 5 6 3 5 7 4 2 4 2 4 6 11 5 7 5 7 6 5 5 6 10
27 24 22 20 17 18 17 13 12 8 3 3 1 1 2 5 4 4 6 4 4 5 6 6 2 4 7 4 1 4 3 6 5 4 2 3 3 10 10 7 5 4 5 7 8
29 27 26 26 11 23 14 16 13 6 1 4 3 4 3 2 6 2 5 4 6 5 3 3 5 8 4 3 1 4 5 5 3 2 2 5 4 5 12 10 8 5 3 4 6
31 30 30 27 16 20 19 19 12 4 6 3 3 4 4 3 1 4 2 6 8 6 9 4 1 2 3 5 3 15 8 6 3 1 3 4 4 9 11 18 11 7 4 3 3
32 32 31 29 20 22 25 21 4 4 1 5 4 5 2 4 3 1 3 5 4 6 4 2 1 1 4 8 5 2 5 2 2 3 3 2 4 7 13 8 12 12 7 3 2
31 33 33 30 22 26 30 3 5 3 6 2 5 8 5 5 2 3 6 5 5 2 5 7 5 8 2 1 5 7 4 2 4 3 2 2 6 2 7 11 10 9 7 4 1
31 32 31 32 27 33 22 4 9 8 9 13 4 4 4 3 3 4 7 5 8 11 3 6 3 2 2 1 2 5 5 4 7 1 2 3 4 5 9 11 12 12 8 6 3
37 30 29 31 32 34 4 12 6 5 11 4 8 3 9 8 8 9 11 5 6 9 2 6 5 0 3 0 4 2 7 3 0 3 5 4 5 8 14 19 17 16 13 9 6
39 17 23 31 33 15 8 6 5 9 9 8 6 6 4 8 10 7 7 3 4 7 4 5 2 4 3 8 9 4 3 1 2 2 3 3 5 4 15 18 20 20 15 12 9
34 5 30 36 10 5 9 7 8 8 5 3 5 4 8 9 7 9 12 2 11 14 7 5 4 4 4 1 2 2 4 8 4 6 2 2 6 0 4 13 23 19 14 12 10
34 10 34 40 11 5 1 6 8 7 7 7 5 2 3 8 4 4 6 2 7 9 7 7 2 3 2 1 2 6 6 3 3 1 8 5 5 1 6 13 18 18 14 13 12
28 6 8 24 15 13 10 11 8 6 7 7 6 6 5 3 2 6 5 1 4 5 2 7 2 5 8 4 5 7 11 13 6 5 6 11 4 7 11 13 18 16 15 14 13
27 8 19 10 16 8 18 18 22 8 3 10 2 7 10 5 3 5 4 4 2 4 4 2 4 3 1 2 3 3 8 18 16 14 12 7 14 17 16 18 28 22 16 16 16
20 11 15 9 30 18 20 20 29 9 12 9 6 16 6 10 10 9 9 6 5 4 5 4 3 2 3 4 3 6 12 17 20 15 13 10 12 7 9 15 20 28 24 20 20
33 39 33 22 17 20 24 21 22 19 9 8 18 10 13 7 12 12 4 13 14 11 8 7 6 4 6 2 3 9 22 20 11 13 14 14 17 11 7 16 27 33 30 27 23
Wind_Direction
242 245 237 199 152 138 122 113 110 110 112 113 118 117 113 102 75 108 64 55 50 64 73 81 85 86 84 61 61 79 92 116 121 143 126 110 140 73 80 93 68 69 73 39 14
224 226 219 180 154 144 139 130 123 115 116 122 129 121 114 103 83 75 66 59 58 69 80 94 90 82 68 35 32 49 95 102 88 110 118 97 100 101 120 105 91 75 61 39 28
222 212 201 183 160 156 151 142 127 123 126 131 144 139 132 133 102 38 55 66 62 74 85 90 94 84 62 43 23 34 103 124 97 106 120 108 78 70 126 79 55 79 55 42 39
217 210 198 182 166 165 156 141 127 127 131 139 141 131 114 141 182 39 56 67 69 70 85 87 107 70 62 57 24 104 87 107 112 100 109 109 105 74 64 68 96 84 66 53 47
213 211 197 184 174 169 160 148 137 136 137 140 139 137 123 89 75 57 57 70 69 67 99 98 95 93 89 100 86 98 110 81 97 92 86 112 96 94 82 98 95 80 67 55 50
204 203 201 187 176 171 162 152 144 144 142 138 141 135 134 88 85 70 64 64 78 83 95 109 104 108 89 66 43 115 106 106 97 81 94 111 78 69 44 187 103 91 71 60 51
206 195 194 189 182 175 163 155 149 150 147 140 131 110 121 112 110 90 85 91 94 97 105 107 113 114 107 105 113 110 101 102 45 15 114 122 53 28 3 115 108 83 73 64 54
208 202 192 186 186 175 163 156 150 152 146 142 143 140 93 116 104 100 101 99 99 105 107 98 102 99 84 119 81 97 130 146 38 9 140 231 92 33 72 116 100 89 74 62 54
206 203 198 191 181 179 166 157 154 150 146 143 142 130 123 124 109 109 124 115 111 115 108 103 96 89 102 123 116 52 154 127 137 9 271 229 127 66 89 109 95 82 72 63 55
206 201 198 195 183 177 169 155 148 142 137 134 131 119 134 131 121 112 121 132 117 123 105 87 67 93 94 201 190 172 148 130 129 36 73 97 113 105 82 96 88 79 70 61 53
209 201 199 195 186 181 172 148 140 119 136 104 111 114 136 132 120 120 128 121 120 82 71 28 128 133 99 344 51 115 129 126 111 88 101 111 122 106 91 92 88 79 74 58 45
208 203 199 195 188 185 181 183 192 151 107 95 107 113 135 139 119 112 139 108 81 91 5 94 99 106 98 86 100 106 127 100 100 39 122 149 120 107 98 79 101 103 77 52 37
207 199 198 195 189 190 191 198 166 148 86 86 112 125 135 147 115 105 132 108 86 87 25 117 120 141 102 107 108 59 120 156 96 116 67 146 164 168 114 110 106 96 88 54 35
206 198 196 192 191 193 193 184 169 158 99 153 133 90 123 142 71 109 113 122 71 116 97 82 111 139 123 120 10 135 72 106 118 193 220 262 232 202 175 163 156 127 85 56 40
204 199 192 192 189 187 188 173 164 147 255 79 130 144 117 122 131 79 105 90 117 116 208 118 158 151 149 117 147 115 105 94 102 130 236 184 247 114 172 202 192 160 102 67 44
205 198 194 194 194 185 171 161 147 64 240 154 139 155 136 71 47 116 98 91 118 89 58 100 67 10 75 66 86 137 102 80 84 146 233 154 239 190 189 217 186 183 165 109 54
207 200 195 192 193 178 164 151 66 178 86 181 176 166 145 134 119 99 157 154 165 130 157 129 73 83 145 103 111 126 138 166 216 207 239 113 253 295 196 183 180 174 171 144 62
206 198 194 194 187 175 164 90 175 200 185 125 124 125 181 163 130 140 141 190 222 152 142 166 202 188 161 267 182 180 191 224 272 219 115 148 232 251 190 175 173 173 175 178 157
196 197 195 189 183 176 167 193 192 188 155 143 105 130 185 185 151 167 194 207 204 193 188 155 132 89 28 165 256 162 205 101 105 114 236 205 266 221 176 193 197 194 191 202 197
193 192 200 183 179 177 162 212 201 137 123 166 156 158 175 180 164 189 187 188 185 189 229 173 115 190 139 146 54 257 138 128 213 223 247 207 265 244 202 208 202 202 203 202 195
190 178 197 181 174 184 202 213 183 178 141 154 165 134 168 174 185 179 190 175 160 155 159 149 139 141 158 208 186 149 191 68 110 225 244 282 233 199 209 203 198 199 197 193 189
175 181 174 175 166 189 203 184 168 157 170 142 120 110 162 164 158 198 199 220 160 153 172 195 119 162 183 56 325 295 220 183 212 194 222 330 265 306 236 200 192 188 187 188 193
167 153 173 175 199 193 194 195 189 143 178 159 143 133 146 163 162 178 179 22 163 167 159 187 164 118 201 207 181 224 201 173 88 95 193 186 246 66 149 168 182 179 184 189 193
160 131 169 207 235 181 166 191 184 180 157 149 126 117 122 115 14 156 144 141 178 165 126 137 170 201 231 125 132 196 197 190 190 192 178 227 255 202 196 193 193 193 192 193 195
180 177 169 187 207 183 183 170 190 159 208 165 136 210 158 122 110 159 131 133 90 154 113 131 230 189 218 223 225 229 198 194 204 210 209 223 219 240 198 201 202 194 193 195 200
170 150 171 151 174 178 190 200 190 175 151 208 201 188 176 157 184 178 142 187 177 155 170 151 188 152 258 224 226 249 231 213 218 221 255 250 264 195 204 191 190 202 203 203 205
189 193 169 166 170 180 200 185 196 175 205 199 180 149 191 167 116 122 69 138 143 152 164 157 141 130 260 36 290 261 217 211 200 206 212 217 233 152 183 195 204 206 212 215 210